Weather History for KEKQ - October, 2012

Change the Weather History Date:

Sunday, October 14, 2012

  Actual Average (KLOZ) Record (KLOZ)
Temperature  
Mean Temperature 67 °F 58 °F  
Max Temperature 73 °F 70 °F 83 °F (1962)
Min Temperature 61 °F 46 °F 25 °F (1988)
Degree Days  
Heating Degree Days 0 8  
Month to date heating degree days 86  
Since 1 July heating degree days 133  
Cooling Degree Days 2 1  
Month to date cooling degree days 16  
Growing Degree Days 17 (Base 50)    
Moisture  
Dew Point 60 °F    
Average Humidity 77    
Maximum Humidity 94    
Minimum Humidity 61    
Precipitation  
Precipitation 0.03 in 0.10 in 2.04 in (1970)
Month to date precipitation 1.33  
Sea Level Pressure  
Sea Level Pressure 30.01 in    
Wind  
Wind Speed 14 mph (South)    
Max Wind Speed 24 mph    
Max Gust Speed 36 mph    
T = Trace of Precipitation, MM = Missing Value Source: NWS Daily Summary

Daily Weather History Graph

Daily Weather History Graph

Search for Another Location

Airport or City:

Trip Planner

Search our weather history database for the weather conditions in past years. The results will help you decide how hot, cold, wet, or windy it might be!

Date:

Astronomy

Oct. 14, 2012 Rise Set
Actual Time 6:46 AM CDT 6:03 PM CDT
Civil Twilight 6:20 AM CDT 6:29 PM CDT
Nautical Twilight 5:50 AM CDT 6:59 PM CDT
Astronomical Twilight 5:20 AM CDT 7:29 PM CDT
Moon 5:45 AM CDT (10/14) 5:23 PM CDT (10/14)
Length of Visible Light 12h 09m
Length of Day
11h 17m
Waning Crescent, 1% of the Moon is Illuminated
Oct 14
Waning Crescent
Oct 15
New
Oct 21
First Quarter
Oct 29
Full
Nov 6
Last Quarter

Hourly Weather History & Observations

Time (CDT) Temp. Dew Point Humidity Pressure Visibility Wind Dir Wind Speed Gust Speed Precip Events Conditions
12:56 AM 63.9 °F 54.0 °F 70% 30.13 in - SSE 10.4 mph - N/A   Clear
1:56 AM 63.9 °F 52.9 °F 67% 30.12 in - SSE 12.7 mph - N/A   Clear
2:56 AM 63.9 °F 52.9 °F 67% 30.10 in - SSE 12.7 mph 23.0 mph N/A   Mostly Cloudy
3:56 AM 63.0 °F 52.9 °F 70% 30.10 in - SSE 17.3 mph - N/A   Mostly Cloudy
4:56 AM 61.9 °F 54.0 °F 75% 30.10 in - SSE 11.5 mph - N/A   Clear
6:56 AM 61.9 °F 54.9 °F 78% 30.12 in - South 12.7 mph - N/A   Mostly Cloudy
7:56 AM 61.9 °F 55.9 °F 81% 30.14 in - South 15.0 mph - N/A   Mostly Cloudy
8:56 AM 66.9 °F 57.9 °F 73% 30.12 in - South 15.0 mph - N/A   Clear
9:21 AM 68.0 °F 57.2 °F 68% 30.12 in - SSE 17.3 mph - N/A   Mostly Cloudy
9:56 AM 70.0 °F 59.0 °F 68% 30.10 in - South 16.1 mph - N/A   Mostly Cloudy
10:21 AM 69.8 °F 60.8 °F 73% 30.10 in - South 17.3 mph - N/A   Clear
10:56 AM 72.0 °F 59.9 °F 66% 30.08 in - South 17.3 mph - N/A   Clear
11:56 AM 72.9 °F 59.9 °F 64% 30.05 in - South 21.9 mph 32.2 mph N/A   Mostly Cloudy
12:56 PM 73.9 °F 59.9 °F 61% 30.01 in - South 21.9 mph 35.7 mph N/A   Mostly Cloudy
1:56 PM 72.0 °F 59.9 °F 66% 29.96 in - South 20.7 mph - N/A   Clear
2:56 PM 70.9 °F 59.0 °F 66% 29.96 in - South 20.7 mph - N/A   Clear
3:56 PM 70.0 °F 59.9 °F 70% 29.94 in - South 16.1 mph - N/A   Clear
4:56 PM 70.0 °F 59.9 °F 70% 29.92 in - South 24.2 mph - N/A   Mostly Cloudy
5:56 PM 68.0 °F 61.9 °F 81% 29.92 in - South 13.8 mph - 0.00 in   Mostly Cloudy
6:32 PM 66.2 °F 62.6 °F 88% 29.93 in - SSW 11.5 mph - 0.03 in Rain Light Rain
6:56 PM 65.8 °F 63.9 °F 93% 29.93 in - SSW 11.5 mph - 0.03 in Rain Light Rain
7:15 PM 66.2 °F 64.4 °F 94% 29.92 in - South 10.4 mph - 0.00 in   Mostly Cloudy
7:56 PM 66.9 °F 63.9 °F 90% 29.92 in - South 11.5 mph - 0.00 in   Mostly Cloudy
8:56 PM 65.8 °F 63.0 °F 90% 29.92 in - SW 10.4 mph - N/A   Clear
9:56 PM 68.0 °F 63.9 °F 87% 29.93 in - SW 11.5 mph - N/A   Mostly Cloudy
10:29 PM 68.0 °F 64.4 °F 88% 29.92 in - SSW 15.0 mph - N/A   Mostly Cloudy
10:40 PM 66.2 °F 64.4 °F 94% 29.91 in - SW 10.4 mph - N/A   Mostly Cloudy
10:56 PM 66.9 °F 63.9 °F 90% 29.91 in - SW 9.2 mph - N/A   Mostly Cloudy